[[{"header":{"parameterUnit":"m.s-1","parameterCategory":1,"la1":30.2991,"la2":30.254,"lo1":-89.0895,"lo2":-89.0444,"dy":0.0017,"dx":0.0017,"nx":28,"ny":28,"refTime":"2025-11-27T03:00:00:Z","depth":0,"parameterNumber":2,"parameterNumberName":"U-component_of_WINDS"},"data":[0,0,0,0,0,0,0,0,0,0,0,0,0,0,0,0,0,0,0,0,0,0,0,0,0,0,0,0,0,0,0,0,0,0,0,0,0,0,0,0,0,0,0,0,0,0,0,0,0,0,0,0,0,0,0,0,0,0,-4.7754,-4.7755,0,-4.7819,-4.782,-4.7821,-4.7688,-4.7683,-4.7679,-4.7675,-4.774,-4.7745,-4.7751,0,0,0,0,0,0,0,0,0,0,0,0,0,-4.751,-4.7515,-4.7754,-4.7755,-4.7755,-4.7819,-4.782,-4.7821,-4.7689,-4.7683,-4.7678,-4.7673,-4.7738,-4.7745,-4.7752,0,0,0,0,0,0,0,0,0,0,0,0,0,-4.76,-4.7517,-4.7754,-4.7697,-4.7693,-4.7819,-4.782,-4.7821,-4.769,-4.7683,-4.7677,-4.7671,-4.7736,-4.7744,-4.7753,-4.7936,0,0,-4.7779,-4.7783,0,0,0,0,0,0,0,0,-4.7595,-4.7609,-4.7705,-4.7701,-4.7697,-4.7739,-4.7758,-4.786,-4.7691,-4.7691,-4.7675,-4.7667,-4.7745,-4.7752,-4.7779,-4.7939,-4.7942,-4.778,-4.7785,-4.7789,-4.7791,0,0,0,0,0,0,0,-4.7589,-4.7605,-4.7779,-4.7706,-4.7701,-4.7667,-4.7673,-4.7776,-4.7753,-4.769,-4.7681,-4.7691,-4.7741,-4.7771,-4.7779,-4.7943,-4.778,-4.7787,-4.7793,-4.7796,-4.8254,-4.826,0,0,0,0,0,0,-4.759,-4.7601,-4.7777,-4.7781,-4.7629,-4.7677,-4.7683,-4.7732,-4.7752,-4.7749,-4.7696,-4.7684,-4.7759,-4.7769,-4.7781,-4.7994,-4.7789,-4.7797,-4.7802,-4.8247,-4.8255,-4.8263,0,0,0,0,0,0,-4.7586,-4.7607,-4.7775,-4.7689,-4.7707,-4.7688,-4.7744,-4.7736,-4.7766,-4.7756,-4.7751,-4.7731,-4.7754,-4.7769,-4.7898,-4.7995,-4.7801,-4.7809,-4.8239,-4.8249,-4.8259,-4.8425,0,0,0,0,0,0,-4.7579,-4.7606,-4.7677,-4.7691,-4.7713,-4.7893,-4.775,-4.7742,-4.7781,-4.7766,-4.7787,-4.7784,-4.775,-4.7886,-4.7907,-4.8003,-4.7815,-4.823,-4.8243,-4.8256,-4.8411,-4.844,-4.8465,0,0,0,0,0,-4.7571,-4.7721,-4.7681,-4.7703,-4.7801,-4.7898,-4.791,-4.7869,-4.779,-4.7859,-4.7853,-4.7784,-4.7982,-4.79,-4.7922,-4.8023,-4.8223,-4.8239,-4.8255,-4.8399,-4.8434,-4.8464,0,0,0,0,0,0,-4.7719,-4.7722,-4.7678,-4.7838,-4.7869,-4.7876,-4.7963,-4.7908,-4.7962,-4.7945,-4.789,-4.7896,-4.8036,-4.8042,-4.7952,-4.82,-4.8089,-4.811,-4.819,-4.8224,-4.8251,-4.8245,-4.7822,0,0,0,0,0,-4.777,-4.785,-4.7848,-4.799,-4.8007,-4.7983,-4.8024,-4.7989,-4.8019,-4.8031,-4.8034,-4.8064,-4.8132,-4.8179,-4.8242,-4.8411,-4.8412,-4.8492,-4.8519,-4.8541,-4.8559,-4.8646,-4.868,-4.8314,-4.8314,-4.8314,0,0,-4.7876,-4.7888,-4.7942,-4.802,-4.8039,-4.8122,-4.7995,-4.8088,-4.8148,-4.8045,-4.8166,-4.817,-4.82,-4.835,-4.8415,-4.8359,-4.866,-4.8561,-4.8579,-4.8585,-4.8666,-4.87,-4.8731,-4.8325,-4.8323,-4.8321,0,0,-4.8112,-4.8131,-4.8248,-4.8271,-4.8303,-4.8285,-4.8314,-4.8329,-4.8327,-4.8449,-4.8372,-4.8442,-4.8562,-4.8586,-4.8614,-4.8857,-4.8794,-4.8879,-4.9019,-4.9105,-4.9134,-4.9159,-4.9243,-4.9274,-4.8897,-4.8898,-4.8898,0,-4.824,-4.8362,-4.8316,-4.8414,-4.8449,-4.836,-4.8478,-4.8501,-4.8552,-4.8578,-4.8515,-4.8662,-4.8676,-4.8828,-4.8887,-4.8914,-4.8943,-4.8876,-4.9134,-4.9158,-4.9181,-4.9261,-4.9293,-4.8908,-4.8907,-4.8906,-4.8905,0,-4.8517,-4.8603,-4.8694,-4.8745,-4.879,-4.8898,-4.8867,-4.8918,-4.8879,-4.8868,-4.8991,-4.9005,-4.9068,-4.9102,-4.9065,-4.9249,-4.9212,-4.9143,-4.9029,-4.9227,-4.93,-4.9331,-4.8922,-4.8918,-4.8915,-4.8913,0,0,-4.8847,-4.887,-4.8904,-4.8925,-4.8953,-4.9018,-4.912,-4.9182,-4.9226,-4.9264,-4.9347,-4.945,-4.9385,-4.9417,-4.9381,-4.9457,-4.9645,-4.9377,-4.9377,-4.9424,-4.9845,-4.9896,-4.9932,-4.9605,-4.961,-4.9615,-4.9841,0,-4.9078,-4.9255,-4.9216,-4.939,-4.9467,-4.9382,-4.9471,-4.9497,-4.9489,-4.9552,-4.9543,-4.9616,-4.9526,-4.9544,-4.9615,-4.9607,-4.9728,-4.9591,-4.9679,-4.9683,-4.9672,-4.9971,-5.0025,-5.0238,-4.987,-4.9875,-4.9879,0,-4.9372,-4.942,-4.9602,-4.9615,-4.9646,-4.9727,-4.9779,-4.9841,-4.9868,-4.9856,-4.9892,-4.9841,-4.994,-4.9828,-4.9963,-4.987,-4.9903,-4.9905,-4.9912,-4.9917,-4.9791,-4.9981,-5.0306,-5.0337,-4.9924,-4.992,-4.9917,0,-4.9591,-4.9702,-4.9824,-4.9845,-4.9864,-4.9922,-4.9933,-4.9953,-4.9992,-5.0038,-5.0062,-5.0118,-5.0149,-5.0193,-5.0158,-5.008,-5.0298,-5.0183,-5.0289,-5.029,-5.0337,-5.0334,-5.0669,-5.0364,-5.0363,-5.0363,-5.0362,0,-4.9852,-4.9965,-4.9922,-4.9997,-5.0121,-5.0074,-5.0198,-5.0198,-5.0217,-5.0289,-5.0221,-5.0289,-5.0241,-5.0305,-5.0279,-5.0393,-5.0408,-5.04,-5.0391,-5.0405,-5.0405,-5.0424,-5.0407,-5.0371,-5.0369,-5.0368,-5.0366,0,-5.0117,-5.0093,-5.022,-5.0227,-5.0232,-5.0323,-5.0328,-5.0397,-5.0383,-5.0476,-5.0494,-5.0473,-5.0545,-5.0516,-5.0592,-5.0574,-5.0719,-5.0692,-5.071,-5.0702,-5.0809,-5.0799,-5.1166,-5.1211,-5.0879,-5.0883,-5.0885,0,-5.0284,-5.0369,-5.0386,-5.0429,-5.0444,-5.0516,-5.0555,-5.0512,-5.0555,-5.0591,-5.0655,-5.0721,-5.0771,-5.089,-5.088,-5.0938,-5.091,-5.1035,-5.0918,-5.0928,-5.0908,-5.0902,-5.0909,-5.1057,-5.1061,-5.1064,-5.1067,0,-5.0581,-5.0565,-5.0624,-5.068,-5.0728,-5.0769,-5.0804,-5.0844,-5.0802,-5.0854,-5.0926,-5.0966,-5.1043,-5.1108,-5.1159,-5.1168,-5.111,-5.1104,-5.1131,-5.1144,-5.115,-5.1146,-5.0771,-5.1095,-5.1092,-5.109,-5.1089,-5.1088,-5.08,-5.0871,-5.0893,-5.0961,-5.0983,-5.1017,-5.1081,-5.1075,-5.1136,-5.1195,-5.1166,-5.125,-5.1272,-5.1334,-5.1351,-5.1415,-5.1365,-5.1406,-5.1415,-5.1425,-5.1438,-5.1143,-5.1424,-5.1423,-5.1422,-5.1422,-5.1421,0,-5.1092,-5.1102,-5.1165,-5.1215,-5.1268,-5.1211,-5.1246,-5.1293,-5.1368,-5.1394,-5.1445,-5.1528,-5.159,-5.1586,-5.1643,-5.1695,-5.167,-5.1711,-5.1706,-5.1708,-5.148,-5.1449,-5.1731,-5.1731,-5.1731,-5.1731,-5.173,-5.173,-5.1249,-5.1365,-5.1351,-5.1476,-5.1485,-5.1567,-5.1592,-5.1622,-5.1642,-5.1737,-5.1789,-5.1786,-5.1799,-5.1857,-5.1911,-5.1908,-5.1931,-5.1982,-5.1969,-5.1755,-5.1725,-5.1695,-5.1666,-5.1988,-5.1989,-5.2191,-5.2193,-5.2195]},{"header":{"parameterUnit":"m.s-1","parameterCategory":1,"la1":30.2991,"la2":30.254,"lo1":-89.0895,"lo2":-89.0444,"dy":0.0017,"dx":0.0017,"nx":28,"ny":28,"refTime":"2025-11-27T03:00:00:Z","depth":0,"parameterNumber":3,"parameterNumberName":"V-component_of_WINDS"},"data":[0,0,0,0,0,0,0,0,0,0,0,0,0,0,0,0,0,0,0,0,0,0,0,0,0,0,0,0,0,0,0,0,0,0,0,0,0,0,0,0,0,0,0,0,0,0,0,0,0,0,0,0,0,0,0,0,0,0,-3.6879,-3.688,0,-3.6959,-3.696,-3.6961,-3.6925,-3.6923,-3.6921,-3.6919,-3.6999,-3.7003,-3.7007,0,0,0,0,0,0,0,0,0,0,0,0,0,-3.6692,-3.6696,-3.6879,-3.688,-3.6881,-3.6959,-3.696,-3.6961,-3.6925,-3.6923,-3.6921,-3.6918,-3.6998,-3.7002,-3.7007,0,0,0,0,0,0,0,0,0,0,0,0,0,-3.6773,-3.6697,-3.6879,-3.6873,-3.6873,-3.6958,-3.696,-3.6961,-3.6926,-3.6923,-3.692,-3.6917,-3.6996,-3.7002,-3.7008,-3.7103,0,0,-3.7026,-3.7028,0,0,0,0,0,0,0,0,-3.6768,-3.678,-3.6873,-3.6873,-3.6874,-3.6929,-3.6923,-3.7009,-3.6927,-3.6906,-3.6919,-3.6916,-3.6978,-3.6985,-3.7006,-3.7107,-3.711,-3.7026,-3.703,-3.7032,-3.7034,0,0,0,0,0,0,0,-3.6763,-3.6776,-3.691,-3.6874,-3.6875,-3.6865,-3.6873,-3.6939,-3.6957,-3.6907,-3.6905,-3.6915,-3.6978,-3.7001,-3.7008,-3.7111,-3.7026,-3.7031,-3.7035,-3.7037,-3.7291,-3.7294,0,0,0,0,0,0,-3.6758,-3.6772,-3.6908,-3.6913,-3.6813,-3.687,-3.688,-3.6914,-3.6956,-3.696,-3.6917,-3.6913,-3.6992,-3.7001,-3.7011,-3.7123,-3.7032,-3.7038,-3.7041,-3.7288,-3.7292,-3.7295,0,0,0,0,0,0,-3.6754,-3.677,-3.6905,-3.6842,-3.6858,-3.6877,-3.6916,-3.6917,-3.694,-3.6964,-3.6967,-3.6938,-3.699,-3.7002,-3.708,-3.7125,-3.7041,-3.7046,-3.7284,-3.7289,-3.7293,-3.735,0,0,0,0,0,0,-3.6748,-3.6769,-3.6806,-3.6843,-3.6861,-3.6974,-3.6919,-3.6921,-3.6951,-3.6946,-3.6984,-3.6988,-3.6989,-3.7071,-3.7086,-3.7132,-3.7051,-3.728,-3.7286,-3.7292,-3.7344,-3.7356,-3.7367,0,0,0,0,0,-3.6742,-3.682,-3.6809,-3.6825,-3.6909,-3.6977,-3.6987,-3.6988,-3.6955,-3.6992,-3.7007,-3.6986,-3.7118,-3.7079,-3.7096,-3.7144,-3.7277,-3.7284,-3.7291,-3.7339,-3.7354,-3.7366,0,0,0,0,0,0,-3.6788,-3.6824,-3.6812,-3.6904,-3.6938,-3.697,-3.7017,-3.7003,-3.7046,-3.704,-3.7038,-3.7046,-3.7126,-3.7143,-3.7099,-3.7237,-3.7192,-3.7203,-3.7223,-3.7238,-3.7248,-3.7242,-3.7056,0,0,0,0,0,-3.6809,-3.6862,-3.689,-3.6968,-3.6986,-3.6999,-3.7028,-3.7025,-3.706,-3.7073,-3.7094,-3.7127,-3.7175,-3.7208,-3.7254,-3.7347,-3.7353,-3.7388,-3.7399,-3.7408,-3.7417,-3.7465,-3.748,-3.7318,-3.7318,-3.7318,0,0,-3.6853,-3.6879,-3.6912,-3.6978,-3.7004,-3.7057,-3.7011,-3.707,-3.7109,-3.7082,-3.7156,-3.7172,-3.7209,-3.7294,-3.7332,-3.731,-3.7463,-3.7417,-3.7424,-3.7428,-3.7473,-3.7489,-3.7502,-3.7323,-3.7322,-3.7322,0,0,-3.6959,-3.6985,-3.7052,-3.7078,-3.7117,-3.7125,-3.7141,-3.7176,-3.7185,-3.7259,-3.724,-3.7285,-3.737,-3.7396,-3.742,-3.7534,-3.7516,-3.7549,-3.7607,-3.7654,-3.7666,-3.7677,-3.7716,-3.773,-3.7558,-3.7558,-3.7559,0,-3.7008,-3.7089,-3.7088,-3.7148,-3.7176,-3.7155,-3.7221,-3.7246,-3.7298,-3.7317,-3.7292,-3.7396,-3.742,-3.7509,-3.7536,-3.7558,-3.7574,-3.7545,-3.7665,-3.7676,-3.7686,-3.7723,-3.7738,-3.7562,-3.7562,-3.7561,-3.7561,0,-3.7146,-3.7202,-3.7251,-3.7301,-3.7335,-3.7398,-3.7405,-3.7439,-3.7433,-3.7443,-3.7517,-3.7545,-3.7595,-3.7616,-3.7611,-3.7704,-3.7689,-3.7665,-3.7619,-3.7705,-3.7739,-3.7754,-3.7567,-3.7566,-3.7565,-3.7564,0,0,-3.7284,-3.7332,-3.735,-3.7371,-3.7412,-3.7454,-3.7515,-3.7564,-3.7592,-3.7629,-3.7678,-3.7749,-3.7726,-3.7754,-3.7751,-3.7792,-3.7877,-3.7762,-3.7763,-3.7781,-3.7979,-3.7996,-3.8012,-3.7866,-3.7869,-3.7871,-3.7975,0,-3.7392,-3.7499,-3.7499,-3.7597,-3.7647,-3.7627,-3.7679,-3.7709,-3.7719,-3.7762,-3.7773,-3.7823,-3.779,-3.7806,-3.7846,-3.7859,-3.7917,-3.7851,-3.791,-3.7913,-3.7901,-3.8031,-3.805,-3.8147,-3.7989,-3.7991,-3.7993,0,-3.7532,-3.7572,-3.7675,-3.7706,-3.7727,-3.7775,-3.7818,-3.786,-3.7892,-3.7897,-3.7927,-3.7917,-3.7977,-3.7931,-3.8012,-3.7967,-3.7991,-3.8001,-3.8005,-3.8009,-3.7957,-3.8037,-3.8178,-3.8192,-3.8014,-3.8013,-3.8011,0,-3.762,-3.77,-3.7771,-3.779,-3.7829,-3.7862,-3.7879,-3.7909,-3.7938,-3.7976,-3.7994,-3.8038,-3.8062,-3.8096,-3.8098,-3.8064,-3.8179,-3.8133,-3.8183,-3.8183,-3.8207,-3.8206,-3.8352,-3.8226,-3.8225,-3.8225,-3.8225,0,-3.7739,-3.7803,-3.7811,-3.7855,-3.7924,-3.7923,-3.7991,-3.8006,-3.8032,-3.8076,-3.8061,-3.8104,-3.8104,-3.8147,-3.8149,-3.8215,-3.8226,-3.823,-3.8229,-3.8231,-3.823,-3.8245,-3.8238,-3.8229,-3.8228,-3.8227,-3.8227,0,-3.7849,-3.7857,-3.7933,-3.7963,-3.7972,-3.8021,-3.8046,-3.8087,-3.8095,-3.8152,-3.8165,-3.8178,-3.8228,-3.8233,-3.8291,-3.8292,-3.837,-3.8363,-3.8359,-3.8358,-3.8406,-3.8401,-3.8567,-3.8588,-3.8449,-3.845,-3.8452,0,-3.7924,-3.7972,-3.8006,-3.8035,-3.8055,-3.8102,-3.8131,-3.8131,-3.8161,-3.82,-3.8236,-3.8284,-3.8322,-3.8401,-3.8415,-3.8458,-3.8451,-3.8506,-3.8457,-3.8456,-3.8449,-3.8446,-3.845,-3.8515,-3.8517,-3.8518,-3.8519,0,-3.8055,-3.8056,-3.8099,-3.8143,-3.8177,-3.8212,-3.8244,-3.8268,-3.8272,-3.8307,-3.8357,-3.8386,-3.8444,-3.8491,-3.8533,-3.855,-3.8534,-3.8534,-3.8548,-3.8549,-3.8544,-3.8545,-3.8383,-3.853,-3.8529,-3.8528,-3.8528,-3.8527,-3.8149,-3.8189,-3.8219,-3.8267,-3.8291,-3.832,-3.8359,-3.8372,-3.8414,-3.8461,-3.8459,-3.8513,-3.8542,-3.8597,-3.8617,-3.8658,-3.864,-3.866,-3.8665,-3.8669,-3.8673,-3.8538,-3.8666,-3.8666,-3.8666,-3.8665,-3.8665,0,-3.8277,-3.8295,-3.8339,-3.8384,-3.842,-3.8403,-3.8437,-3.8469,-3.8517,-3.8545,-3.8583,-3.8639,-3.8684,-3.8701,-3.8744,-3.8774,-3.8768,-3.8785,-3.8782,-3.8786,-3.8688,-3.8671,-3.8789,-3.8789,-3.8789,-3.8789,-3.8789,-3.8789,-3.8349,-3.8416,-3.842,-3.8499,-3.8516,-3.8569,-3.859,-3.8616,-3.8639,-3.8702,-3.874,-3.875,-3.8773,-3.8818,-3.8858,-3.8861,-3.8877,-3.8897,-3.8898,-3.8806,-3.8793,-3.8781,-3.8765,-3.8901,-3.8901,-3.8992,-3.8993,-3.8993]}]]